Location: Newark
(58.9986°N, 38.5006°E)
Time: 08:40:30
(UTC+00:00)

A-11 Canister half - Visible Passes

Search period start: 20 April 2021 00:00
Search period end: 30 April 2021 00:00
Orbit: 1515 x 1685 km, 47.2° (Epoch: 19 April)

Date Brightness Start Highest point End Pass type
(mag) Time Alt. Az. Time Alt. Az. Time Alt. Az.
20 Apr 10.0 00:46:25 10° W 00:53:26 23° SW 01:00:35 10° S visible
20 Apr 9.7 18:13:57 10° SSW 18:21:14 26° SE 18:28:41 10° E visible
20 Apr 9.3 20:15:39 10° SW 20:24:14 40° S 20:33:06 10° ESE visible
20 Apr 9.4 22:19:01 10° WSW 22:27:39 39° SSW 22:36:33 10° SE visible
21 Apr 9.9 00:23:28 10° W 00:30:37 24° SW 00:37:56 10° S visible
21 Apr 9.8 17:51:19 10° SSW 17:58:26 25° SE 18:05:43 10° E visible
21 Apr 9.3 19:52:51 10° SW 20:01:23 40° SSE 20:10:12 10° ESE visible
21 Apr 9.3 21:56:11 10° WSW 22:04:48 39° SSW 22:13:42 10° SE visible
22 Apr 9.8 00:00:32 10° W 00:07:49 25° SW 00:15:16 10° SSE visible
22 Apr 9.9 17:28:42 10° SSW 17:35:39 24° SE 17:42:45 10° E visible
22 Apr 9.4 19:30:04 10° SW 19:38:33 39° SSE 19:47:19 10° ESE visible
22 Apr 9.3 21:33:19 10° WSW 21:41:57 40° SSW 21:50:51 10° SE visible
22 Apr 9.8 23:37:36 10° W 23:45:00 25° SW 23:52:34 10° SSE visible
23 Apr 9.4 19:07:18 10° SW 19:15:42 38° SSE 19:24:24 10° ESE visible
23 Apr 9.3 21:10:29 10° WSW 21:19:06 40° S 21:28:00 10° SE visible
23 Apr 9.7 23:14:41 10° W 23:22:12 26° SSW 23:29:52 10° SSE visible
24 Apr 9.4 18:44:31 10° SW 18:52:53 38° SSE 19:01:30 10° ESE visible
24 Apr 9.3 20:47:38 10° WSW 20:56:15 40° S 21:05:09 10° SE visible
24 Apr 9.7 22:51:47 10° W 22:59:23 27° SSW 23:07:10 10° SSE visible
25 Apr 10.4 01:00:45 10° WSW 01:01:30 10° SW 01:02:16 10° SW visible
25 Apr 9.5 18:21:45 10° SW 18:30:03 37° SSE 18:38:36 10° E visible
25 Apr 9.3 20:24:48 10° WSW 20:33:25 41° S 20:42:18 10° ESE visible
25 Apr 9.7 22:28:53 10° W 22:36:33 28° SSW 22:44:27 10° SSE visible
26 Apr 10.4 00:36:30 10° WSW 00:38:45 11° SW 00:41:01 10° SW visible
26 Apr 9.5 17:58:59 10° SW 18:07:13 36° SSE 18:15:41 10° E visible
26 Apr 9.3 20:01:59 10° WSW 20:10:34 41° S 20:19:26 10° ESE visible
26 Apr 9.7 22:05:59 10° W 22:13:44 29° SSW 22:21:43 10° SSE visible
27 Apr 10.4 00:12:57 10° WSW 00:16:00 12° SW 00:19:05 10° SSW visible
27 Apr 9.4 19:39:08 10° WSW 19:47:43 41° S 19:56:34 10° ESE visible
27 Apr 9.7 21:43:06 10° W 21:50:55 30° SSW 21:56:17 18° SSE visible
27 Apr 10.3 23:49:36 10° WSW 23:53:15 13° SW 23:54:19 12° SW visible
28 Apr 9.4 19:16:19 10° WSW 19:24:52 41° S 19:33:42 10° ESE visible
28 Apr 9.7 21:20:13 10° W 21:28:06 31° SSW 21:33:02 20° SSE visible
28 Apr 10.3 23:26:21 10° WSW 23:30:29 13° SW 23:31:08 13° SW visible
29 Apr 9.4 18:53:29 10° WSW 19:02:01 41° S 19:10:50 10° ESE visible
29 Apr 9.7 20:57:20 10° W 21:05:17 31° SSW 21:10:18 20° SSE visible
29 Apr 10.3 23:03:11 10° WSW 23:07:43 14° SW 23:08:25 14° SW visible
